Regional Weather Roundup
Issued by NWS Grand Forks, ND

Home | Current Version | Previous Version | Graphics & Text | Print | Product List | Glossary On
Versions: 1 2 3 4 5 6 7 8 9 10 11 12 13 14 15 16 17 18 19 20 21 22 23 24 25 26 27 28 29 30 31 32 33 34 35 36 37 38 39 40 41 42 43 44 45 46 47 48 49 50
979
ASUS43 KFGF 241431
RWRFGF
PRAIRIE TO PINES  WEATHER ROUNDUP
NATIONAL WEATHER SERVICE EASTERN NORTH DAKOTA/GRAND FORKS ND
900 AM CDT MON JUL 24 2017

 **SATELLITE DATA USED TO AUGMENT SKY COVER AT AUTOMATED STATIONS**
 *****  WEATHER ACROSS EASTERN NORTH DAKOTA  *****

CITY           SKY/WX    TMP DP  RH WIND       PRES   REMARKS
GRAND FORKS    FAIR      69  63  81 S10       29.96F
GRAND FRKS AFB FAIR      68  62  78 S13       29.97S
DEVILS LAKE    FAIR      71  61  70 S13       29.92F
FARGO          SUNNY     68  63  83 S12         N/A
WAHPETON ARPT  FAIR      64  59  82 SE13G21   30.01F
$$

 ***** WEATHER ACROSS CENTRAL AND WESTERN NORTH DAKOTA  *****

CITY           SKY/WX    TMP DP  RH WIND       PRES   REMARKS
BISMARCK       FAIR      68  61  78 SE9       29.90S
MINOT          FAIR      77  58  51 SE10G22   29.80F
JAMESTOWN      FAIR      67  61  81 S12       29.95S
MINOT AFB      FAIR      75  59  57 S13       29.78F
GARRISON         N/A     71  61  70 S14       29.84F
WILLISTON      FAIR      76  57  51 S9        29.76S
DICKINSON      FAIR      71  58  63 SE14      29.82F
HETTINGER      FAIR      73  56  54 E10       29.87F
$$

 *****  OTHER AIRPORT OBSERVATIONS IN OUR AREA  *****

CITY           SKY/WX    TMP DP  RH WIND       PRES   REMARKS
WALHALLA       NOT AVBL
GRAFTON AIRPOR FAIR      70  63  78 MISG      29.96F
VALLEY CITY AR FAIR      66  66 100 S12       29.99S
CANDO          NOT AVBL
CAVALIER APRT  FAIR      68  63  83 S10       29.93F
GWINNER        SUNNY     66  63  88 S7        30.00R
SHEYENNE NWR     N/A     67  63  87 S9        29.95S
ROLLA            N/A     68  64  88 S13G18    29.89F
 ***** THE ABOVE OBSERVATIONS ARE NON NWS ARE NOT QUALITY
       CONTROLLED AND MAY MIS-REPORT RAIN FOR SNOW...
$$

  *****  WEATHER ACROSS NORTHERN MINNESOTA  *****

CITY           SKY/WX    TMP DP  RH WIND       PRES   REMARKS
FLAG ISLAND    FAIR      72  63  73 S3        30.00S HAZE
WARROAD        FAIR      68  63  83 S5        30.02F
ROSEAU         FAIR      68  63  83 S10       30.01F
HALLOCK        FAIR      70  64  83 S15       29.96S
THF RVR FALLS  FAIR      68  61  78 S14       30.02F
BAUDETTE       FAIR      68  62  81 S10       30.04R
WASKISH        PTSUNNY   70  57  64 S8        30.06S
CROOKSTON      FAIR      70  63  78 S10       30.00F
STEPHEN NDAWN    N/A     70  63  78 S10         N/A
GREENBUSH NDAW   N/A     68  63  83 S8          N/A
$$
  *****  WEATHER ACROSS CENTRAL AND WEST MINNESOTA  *****

CITY           SKY/WX    TMP DP  RH WIND       PRES   REMARKS
FOSSTON        FAIR      66  59  77 S9        30.04S
BEMIDJI        FAIR      67  56  66 S6        30.06S
PARK RAPIDS    FAIR      65  59  81 S8        30.06S
ELBOW LAKE     FAIR      66  62  86 S14       30.04F
WADENA         FAIR      66  59  77 S9        30.06S
DETROIT LAKES  FAIR      68  57  68 S12       30.04F
MOORHEAD       FAIR      68  61  77 S10       30.01R
FERGUS FALLS   FAIR      66  61  82 S10       30.03F
MORRIS MN      FAIR      68  61  77 SE10      30.04S
STAPLES        FAIR      64  59  82 S7        30.07S
$$
  *****  WEATHER ELSEWHERE ACROSS MINNESOTA  *****

CITY           SKY/WX    TMP DP  RH WIND       PRES   REMARKS
DULUTH         FAIR      58  58 100 SE6       30.10S FOG
INTRNTL FALLS  FAIR      68  56  65 S7        30.07R
ELY            FAIR      66  52  59 SW3       30.10S
CLOQUET        CLOUDY    55  55 100 CALM      30.11R
WHEATON        FAIR      66  61  82 SE9       30.04F
BRAINERD       FAIR      62  58  86 S7        30.08F
HIBBING        FAIR      59  56  89 SE7       30.10R
ALEXANDRIA     FAIR      66  60  81 S10       30.09R
SAINT CLOUD    FAIR      62  59  90 S6        30.08F
MINNEAPOLIS    FAIR      66  58  75 E3        30.08R
$$

  *****  WEATHER ACROSS SOUTH DAKOTA  *****

CITY           SKY/WX    TMP DP  RH WIND       PRES   REMARKS
SIOUX FALLS    FAIR      70  62  76 S9        30.04S
BROOKINGS      FAIR      66  60  81 S9        30.05S
WATERTOWN      FAIR      65  62  90 SE8       30.03S
HURON          FAIR      67  60  78 S13G20    30.00S
SISSETON         N/A     66  62  87 SE10      30.00F
ABERDEEN       FAIR      65  61  87 S12       30.00R
MITCHELL       FAIR      69  61  75 SE10      30.01S
PIERRE         FAIR      71  58  63 SE12      29.92S
MOBRIDGE       FAIR      70  61  73 SE14      29.90F
RAPID CITY     FAIR      76  54  46 S3        29.91R
$$

  *****  SOME WEATHER IN NEARBY STATES *****

CITY           SKY/WX    TMP DP  RH WIND       PRES   REMARKS
GLASGOW MT     FAIR      71  54  54 NW23      29.79R
GREAT FALLS MT FAIR      54  42  64 W8        30.07S
CHEYENNE WY    FAIR      69  52  54 SW7       30.14S
SCOTTSBLUFF NE FAIR      80  58  46 SE5       29.98S
OMAHA NE       FAIR      72  61  68 E6        30.04S
DES MOINES IA  FAIR      71  61  70 NE3       30.04R
DAVENPORT IA   CLOUDY    68  64  87 NE9       30.05R
CHICAGO IL     PTSUNNY   70  58  65 N18       30.01R
EAU CLAIRE WI  CLOUDY    61  55  81 E9        30.09S
LA CROSSE WI   CLOUDY    64  56  75 NE7       30.09R
$$

  *****  SOME NATIONAL WEATHER *****

CITY           SKY/WX    TMP DP  RH WIND       PRES   REMARKS
LA GUARDIA NY  LGT RAIN  67  65  93 NE29G36   29.75F FOG
RALEIGH NC     PTSUNNY   79  74  84 SW9       29.93R
ATLANTA GA     FAIR      82  74  76 VRB6      29.98S
NEW ORLEANS LA FAIR      84  77  79 SW10      30.00R HX  94
OKLAHOMA CITY  FAIR      79  68  69 VRB3      29.99R
ALBUQUERQUE NM PTSUNNY   71  57  61 CALM      30.22R
SALT LAKE CITY PTSUNNY   79  52  38 SE8       30.02R
LOS ANGELES CA PTSUNNY   71  65  81 CALM      29.91R
BOISE ID       FAIR      74  42  31 CALM      29.90R
SEATTLE WA     FAIR      61  53  75 N8        30.06R
$$

*** WEATHER ACROSS MANITOBA...SASKATCHEWAN AND ONTARIO ***
                ***ONTARIO***

CITY           SKY/WX    TMP DP  RH WIND       PRES   REMARKS
GERALDTON      MOSUNNY   70  55  60 S6        30.04R
THUNDER BAY    MOSUNNY   66  55  68 W6        30.07S
SIOUX LOOKOUT  MOSUNNY   70  61  73 W5        30.03S
TORONTO        PTSUNNY   70  59  68 VRB2      29.76R
BIG TROUT LK   SUNNY     70  54  56 W7        29.89S
PICKLE LAKE    PTSUNNY   73  54  49 W6        29.99R
DRYDEN         PTSUNNY   68  59  73 SW10G17   30.04R
KENORA         MOSUNNY   70  61  73 S12G18    30.02S
$$
                *** MANITOBA***

CITY           SKY/WX    TMP DP  RH WIND       PRES   REMARKS
BRANDON        MOSUNNY   68  63  83 SE9       29.82F
DAUPHIN        SUNNY     75  59  57 S7        29.74F
ISLAND LAKE    MOSUNNY   72  59  64 SW5       29.85F
PILOT MOUND      N/A     68  63  83 S15         N/A
THE PAS        LGT RAIN  66  61  82 SE16G24   29.63F
THOMPSON       PTSUNNY   68  61  77 NE3       29.76F
WINNIPEG       MOSUNNY   70  63  78 S12G20    29.92F
LYNN LAKE      PTSUNNY   61  61 100 E7        29.72F
CHURCHILL      PTSUNNY   54  48  82 NE10      29.85F
GILLAM         MOSUNNY   64  59  82 NE3       29.79F
$$
                ***SASKATCHEWAN***

CITY           SKY/WX    TMP DP  RH WIND       PRES   REMARKS
ESTEVAN        PTSUNNY   77  57  50 S23       29.71F THUNDER
KINDERSLEY     PTSUNNY   55  46  71 NW16G25   29.82R
LLOYDMINSTER   MOSUNNY   54  50  87 W17G30    29.72F
PRINCE ALBERT  MOSUNNY   68  63  83 E7        29.54F
REGINA         MOSUNNY   72  57  60 W16       29.69S
YORKTON        SUNNY     68  59  73 S15G21    29.65S
N. BATTLEFORD  PTSUNNY   57  50  77 W23G33    29.72R
LA RONGE       LGT RAIN  64  63  94 N5        29.60S
SASKATOON      CLOUDY    63  57  82 W25G33    29.65R
SWIFT CURRENT  MOSUNNY   57  48  72 NW24G33   29.82R
$$
NOTE: THESE ARE AUTOMATED STATIONS WITH LIMITED QUALITY CONTROL
      "FAIR" INDICATES FEW OR NO CLOUDS BELOW 12,000 FEET WITH NO
      SIGNIFICANT WEATHER AND/OR OBSTRUCTIONS TO VISIBILITY.
      SKY/WX - SKY CONDITION AND SIGNIFICANT WEATHER.
      TMP - AIR TEMPERATURE.    DP   - DEWPOINT TEMPERATURE.
      RH  - RELATIVE HUMIDITY.  PRES - PRESSURE.
      HX  - HEAT INDEX.         WCI  - WIND CHILL INDEX.
$




USA.gov is the U.S. government's official web portal to all federal, state and local government web resources and services.